weather.gov     
National Weather Service

Regional Weather Roundup
NWS Homepage
This page is being discontinued on March 12, 2014.
The same data is available at this site. Please update your bookmarks.
Thank you, and we apologize for the inconvenience.
Please send an email to SR-SRH.Webmaster@noaa.gov with any concerns.


Current Version
Previous Version:    01  02  03  04  05  06  07  08  09  10  11  12  
[Printable]
846
ASUS45 KSLC 021710
RWRUT

UTAH REGIONAL WEATHER ROUNDUP
NATIONAL WEATHER SERVICE SALT LAKE CITY UT
1100 AM MDT TUE SEP 02 2014

UTZ001>011-023>025-021800-

NORTHERN UTAH

CITY           SKY/WX    TMP DP  RH WIND       PRES   REMARKS
DUGWAY         SUNNY     77  37  24 S1        30.04
HILL AFB       SUNNY     71  38  31 E9        30.06S
LOGAN          SUNNY     64  46  52 VRB3      30.05F
OGDEN          SUNNY     73  37  27 VRB3      30.04S
PROVO AIRPORT  SUNNY     70  48  46 VRB5      30.09S
SALT LAKE CITY SUNNY     75  42  30 CALM      30.02F
VERNAL         SUNNY     67  43  41 VRB3      30.15S
WENDOVER       SUNNY     73  36  25 S3        30.03F
HEBER CITY     SUNNY     61  37  41 CALM      30.13F
WEST JORDAN    SUNNY     77  48  36 S16       30.05S

$$

UTZ012>022-026-027-021800-

SOUTHERN UTAH

CITY           SKY/WX    TMP DP  RH WIND       PRES   REMARKS
BRYCE CANYON   SUNNY     73  40  30 NW8       30.29S
CEDAR CITY     SUNNY     81  37  20 SW13      30.12F
MILFORD        SUNNY     80  38  22 S14       30.08S
MOAB/CYNLANDS  SUNNY     79  36  21 VRB7      30.06F
PRICE          SUNNY     74  32  21 CALM      30.16S
ST GEORGE      SUNNY     82  43  24 CALM      29.98F

$$

REGIONAL REPORTS     COLORADO/ARIZONA

CITY           SKY/WX    TMP DP  RH WIND       PRES   REMARKS
CRAIG, CO      SUNNY     68  39  34 NE9       30.20F
GRAND JUNCTION SUNNY     74  37  26 SE8       30.11F
RIFLE          SUNNY     67  40  37 CALM      30.17F
MONTROSE       SUNNY     74  43  32 N6        30.19F
CORTEZ         SUNNY     80  38  22 S3        30.18F
PAGE, AZ       SUNNY     86  38  18 N3        30.06S
GRAND CANYON   SUNNY     77  36  22 S10       30.26S
KINGMAN        SUNNY     91  38  15 CALM      30.00S
FLAGSTAFF      SUNNY     75  37  25 SW9       30.29S

$$

REGIONAL REPORTS    NEVADA/IDAHO/WYOMING

CITY           SKY/WX    TMP DP  RH WIND       PRES   REMARKS
LAS VEGAS, NV  SUNNY     93  34  12 CALM      29.84F
ELY            NOT AVBL
ELKO           SUNNY     69  34  27 CALM      30.07F
POCATELLO, ID  SUNNY     69  38  32 CALM      30.05F
BURLEY         SUNNY     65  45  48 CALM      30.02F
EVANSTON, WY   SUNNY     65  33  30 W6        30.19F
ROCK SPRINGS   SUNNY     65  33  30 VRB3      30.19F

$$




U.S. Dept. of Commerce
NOAA National Weather Service
1325 East West Highway
Silver Spring, MD 20910
E-mail: w-nws.webmaster@noaa.gov
Page last modified: May 16, 2007
NATIONAL WEATHER SERVICE: for Safety, for Work, for Fun - FOR LIFE